This is the latest recevied weather packets stored in our database for station/object DG5MNJ. If no packets are shown the sender has not sent any weather packets the latest 10 day(s).
| Time | Temp. | Humidity | Pressure | Rain* | Wind** | Luminosity | Snow |
|---|---|---|---|---|---|---|---|
| 1777528802 | 3.89° C | 45% | 1024.4 hPa | 0 mm | - | 299 W/m² | - |
| 1777523103 | 2.78° C | 48% | 1024 hPa | 0 mm | - | 17 W/m² | - |
| 1777520703 | 2.78° C | 47% | 1023.7 hPa | 0 mm | - | 0 W/m² | - |
| 1777520403 | 2.78° C | 47% | 1023.8 hPa | 0 mm | - | 0 W/m² | - |
| 1777518902 | 3.33° C | 46% | 1023.5 hPa | 0 mm | - | 0 W/m² | - |
| 1777515302 | 3.89° C | 44% | 1023.7 hPa | 0 mm | - | 0 W/m² | - |
| 1777514702 | 4.44° C | 44% | 1023.8 hPa | 0 mm | - | 0 W/m² | - |
| 1777514402 | 4.44° C | 44% | 1023.8 hPa | 0 mm | - | 0 W/m² | - |
| 1777512602 | 5° C | 43% | 1023.4 hPa | 0 mm | - | 0 W/m² | - |
| 1777512002 | 5° C | 44% | 1023.4 hPa | 0 mm | - | 0 W/m² | - |
| 1777507822 | 6.11° C | 47% | 1023 hPa | 0 mm | - | 0 W/m² | - |
| 1777504202 | 7.78° C | 46% | 1022.8 hPa | 0 mm | - | 0 W/m² | - |
| 1777503302 | 7.78° C | 47% | 1022.8 hPa | 0 mm | - | 0 W/m² | - |
| 1777500022 | 8.89° C | 46% | 1022.3 hPa | 0 mm | - | 0 W/m² | - |
| 1777495822 | 9.44° C | 42% | 1021.7 hPa | 0 mm | - | 0 W/m² | - |
| 1777495522 | 9.44° C | 42% | 1021.8 hPa | 0 mm | - | 0 W/m² | - |
| 1777494602 | 9.44° C | 42% | 1021.7 hPa | 0 mm | - | 0 W/m² | - |
| 1777493402 | 10° C | 42% | 1021.5 hPa | 0 mm | - | 0 W/m² | - |
| 1777493102 | 10° C | 41% | 1021.5 hPa | 0 mm | - | 0 W/m² | - |
| 1777490703 | 11.67° C | 38% | 1020.9 hPa | 0 mm | - | 0 W/m² | - |
| 1777490122 | 11.67° C | 37% | 1020.8 hPa | 0 mm | - | 0 W/m² | - |
| 1777488002 | 12.78° C | 35% | 1020.3 hPa | 0 mm | - | 0 W/m² | - |
| 1777487402 | 13.33° C | 35% | 1020.1 hPa | 0 mm | - | 0 W/m² | - |
| 1777487102 | 13.33° C | 34% | 1020.1 hPa | 0 mm | - | 0 W/m² | - |
| 1777484722 | 14.44° C | 33% | 1019.3 hPa | 0 mm | - | 15 W/m² | - |
* Rain latest hour (hover to see other rain measurements)
** Current wind speed in m/s (hover to see current wind gust speed)